Погода в Даугавпилсе

Погода в Даугавпилсе : погода сейчас, прогноз погоды и архив. Всё, что Вы хотите узнать о погоде в Даугавпилсе!

Поиск расширенной информации на нашем сайте:

Другие новости

Новости СМИ2

Главная страница сайта

Новости сайта

03.07.2017

Напоминаем, что на нашем специализированном сайте Метеоцентр.Азия вы можете получить высокодетализированные автоматические прогнозы погоды по пунктам России, СНГ и мира в авиационном формате (включающие направление и скорость ветра, видимость, явления погоды, количество и форму облачности, нижнюю и верхнюю границу облачности).

Рекомендуем: Качественный ремонт компьютеров коломна выполняется в любой время.

Погода в Даугавпилсе - сегодня

Время (UTC), дата Ветер
(°,м/с) 
Видим.   Явления Облачность Т
(°С)
Тd
(°С)
f(%) Тe
(°С)
Pmin
(гПа)
dP
(гПа)
Po
(мм)
O2
(г/м3)
Тmin Tmax R s Состояние
почвы
15 17.10.17 210 (ЮЗ) 3-6  н/о    н/о 
+13.4 +10.3 81 +14  1015.7  -2.8  753  287           
18 17.10.17 220 (ЮЗ) 2-5  н/о    н/о 
+12.7 +10.5 86 +15  1013.9  -1.8  752  287           
21 17.10.17 220 (ЮЗ) 3-7  н/о    н/о 
+14.7 +12.6 87 +20  1011.5  -2.3  750  284           
00 18.10.17 240 (ЮЗ) 4-8  н/о    н/о 
+13.9 +10.6 80 +16  1011.1  -0.4  750  285           
03 18.10.17 230 (ЮЗ) 3-5  н/о    н/о 
+12 +8.8 81 +12  1010.3  -0.9  749  287           
06 18.10.17 220 (ЮЗ) 3-7  н/о    н/о 
+11.4 +8.3 81 +11  1009.9  -0.5  749  288           
09 18.10.17 250 (З) 5-10  н/о    н/о 
+12.5 +7.6 72 +12  1010  0.2  749  287           
12 18.10.17 240 (ЮЗ) 4-9  н/о    н/о 
+14 +8.1 68 +14  1010.3  0.3  749  286           
15 18.10.17 240 (ЮЗ) 3-6  н/о    н/о 
+12.7 +8.7 77 +13  1011.1  0.8  750  287           
18 18.10.17 280 (З) 2-3  н/о    н/о 
+10.3 +9.5 95 +11  1013.2  1.9  751  290           
21 18.10.17 260 (З) 1-2  н/о    н/о 
+6.1 +5.7 97 +7  1015.2  1.8  752  296           
00 19.10.17 270 (З) 1-1  н/о    н/о 
+2.5 +2.5 100 +3  1016.8  1.4  753  300           
03 19.10.17 тихо () -1  н/о    н/о 
+1.3 +1.3 100 +1  1017.7  0.9  754  302           
06 19.10.17 тихо () -1  н/о    н/о 
+1.7 +1.7 100 +2  1018.9  1.1  755  302           
09 19.10.17 310 (СЗ) 2-2  н/о    н/о 
+7.6 +6.5 93 +8  1020.1  1.5  756  295           
12 19.10.17 260 (З) 1-3  н/о    н/о 
+10.1 +4.9 70 +11  1020.1  0.1  756  293           
15 19.10.17 310 (СЗ) 1-2  н/о    н/о 
+8.2 +4.7 79 +9  1020.4  0.2  756  295           
18 19.10.17 тихо () -0  н/о    н/о 
+1.6 +1.2 97 +2  1021.6  0.9  757  303           
21 19.10.17 тихо () -0  н/о    н/о 
+0.1 -0.1 99 1022.7  0.9  758  305           
00 20.10.17 тихо () -1  н/о    н/о 
-0.9 -0.9 100 -1  1023.2  0.4  758  307           
03 20.10.17 020 (С) 1-1  н/о    н/о 
-1.1 -1.1 100 -1  1023.5  0.3  758  307           
06 20.10.17 тихо () -0  н/о    н/о 
-0.2 -0.2 100 -0  1024.2  0.7  759  306           
09 20.10.17 280 (З) 1-1  н/о    н/о 
+4.5 +4.5 100 +5  1024.5  0.5  759  300           
12 20.10.17 110 (В) 1-2  н/о    н/о 
+10 +1.4 55 +11  1023.3  -0.9  758  295           
15 20.10.17 тихо () -1  н/о    н/о 
+6.1 +3.4 83 +6  1023  -0.5  758  298           
Время (UTC), дата Ветер
(°,м/с) 
Видим.   Явления Облачность Т
(°С)
Тd
(°С)
f(%) Тe
(°С)
Pmin
(гПа)
dP
(гПа)
Po
(мм)
O2
(г/м3)
Тmin Tmax R s Состояние
почвы

Для получения пояснительной информации подведите курсор к названию столбца.

ПОГОДА в Даугавпилсе - архив

Всё, что Вы хотите узнать о погоде в Даугавпилсе - удобно и подробно!

Выберите нужную дату (начиная с 1 января 2015* года) и нажмите кнопку "Найти".
Будут отображены архивные сводки погоды по пункту Даугавпилс, начиная с указанной даты.


Отображать данные в формате CSV (для использования в таблицах Excel)


Внимание! Наш архив погоды предназначен исключительно для личного некоммерческого использования в познавательных целях. Если Вам необходимы официальные справки о состоянии погоды (для производственных, юридических, коммерческих и т.п. целей), обращайтесь в органы Росгидромета.

*Примечание: данная дата относится к архиву по метеостанциям СССР (Россия, СНГ, Балтия).
Архив по метеостанциям Зарубежной Европы и Азии (кроме Китая) хранится 10 дней, по другим регионам земного шара (Китай, Африка, Америка, Австралия, Океания) - 1 день.

Даугавпилс - район местоположения метеостанции


Название, широта, долгота, высота метеостанции:
Даугавпилс 55.9°ш. 26.6°д. 122 м над ур. моря [Латвия]

Дополнительная информация

В oтличие oт бoльшинства пoгoдных сайтoв мы публикуем пoдрoбную метеoинфoрмацию в детальнoм прoфессиoнальнoм фoрмате.

Характеристики температуры и влажнoсти вoздуха измеряются на высoте 2 м в тени вдали oт зданий и деревьев.
Скoрoсть ветра измеряется на высoте 10 м (на урoвне рoста челoвека скoрoсть ветра ниже в 1.5-2 раза). Если метеoстанция нахoдится в гoрoде или в лесу, тo скoрoсть ветра занижена на 2-4 м/с пo сравнению с oткрытым местoм. Скoрoсть ветра над акватoриями крупных рек и oзёр, а также на вершинах хoлмoв на 2-5 м/с выше, чем в oбычных услoвиях.
Атмoсфернoе давление в разных тoчках местнoсти мoжет значительнo oтличаться oт давления на метеoстанции, в зависимoсти oт услoвий рельефа (при пoдъёме на 10 м давление пoнижается примернo на 1 мм рт.ст.).